DECAYED

STARLINK-4540, 53428 (Decayed)

Orbit data source: Space-Track

STARLINK-4540, 53428 was a payload satellite owned by SpaceX/Seattle (US) in LEO that was launched on Wed, 10 Aug 2022 UTC via an FALCON 9 launch vehicle from the Air Force Eastern Test Range (AFETR). Payload-class satellites include a variety of spacecraft equipped with specific instruments for various scientific and technological missions. These include communications satellites like Starlink; space stations such as the ISS; scientific satellites like the Hubble; Earth observation satellites from companies like Planet Labs, Umbra, and HawkEye 360; GPS; miniature CubeSats for education and research; and military/defense satellites.

Not visible in the next 10 days
Identifier
53428, 2022-097AS
Orbit
Decayed
Country
Flag of USUS
Related business
Manufacturer
SpaceX/Seattle
Mission
Decayed Commercial Communications
Bus & Motor
STARLINK, Unknown motor
Mass
297 kg wet, ~275 kg dry
Launch date (UTC)
2022-08-10 (4 years ago)
Launch vehicle
FALCON 9
Launch site
Air Force Eastern Test Range (AFETR)
Object type
Payload
Rocket body
Debris
Shape & HBR
Box + 1 Pan, 10.1 m
Radar Cross Section
13.562 m², Large (>1 m²)

Expand to show TLE details & history
Last TLE update: 1 year ago

TLE from 1 year ago
0 STARLINK-4540
1 53428U 22097AS  24363.68366561  .04104387  12165-4  54924-3 0  9994
2 53428  53.2051 239.7110 0006770 217.5646 175.3018 16.34608211132782
Epoch: 2024-12-28T16:24Z
TLE epoch observation values (Epoch: 2024-12-28T16:24:28.708Z)
Latitude
25.83905°
Longitude
-82.93153°
Altitude
185.718 km
Speed
7.796 km/s
True Right ascension
17h 23m 16s
True Declination
25° 41' 34"
Sunlit
Object was in daylight at epoch
Visualization orbit readout
Latitude
Unknown
Longitude
Unknown
Altitude
Unknown
Speed
Unknown
Apparent Right ascension
Unknown
Apparent Declination
Unknown
Sunlit
N/A
Visualization observer readout
Local Sidereal Time
09:25:12
Azimuth
Unknown
Elevation
Unknown
Doppler factor
Unknown
Orbital elements
Apogee altitude
184.885 km
Perigee altitude
176.005 km
Semi-major axis
6,558.582 km
Eccentricity
0.00068
Inclination
53.2051°
RAAN
239.711°
Arg. of periapsis
217.5646°
True anomaly
175.30815°
Mean anomaly
175.3018°
Eccentric anomaly
175.30497°
Mean motion
4.08628 °/min
Orbital period
88.1 mins
BSTAR
0.00054924
Loading maneuver chart data...
Computing Atmospheric mass density...
Loading historical data...
Loading historical data...
Loading historical data...
Loading historical data...
Loading historical data...
Loading historical data...
Loading historical data...

Documentation

Showing up to 5 results
|